Terminal Aerodrome Forecast
Issued by NWS

Home | Current Version | Previous Version | Text Only | Print | Product List | Glossary On
Versions: 1 2 3 4 5 6 7 8 9 10 11 12 13 14 15
000
FTUS44 KOUN 251134
TAFWWR
TAF
KWWR 251134Z 2512/2612 22014G19KT P6SM SCT015
      TEMPO 2512/2514 BKN015
     FM251900 21015G22KT P6SM SKC
     FM260000 17014KT P6SM SKC
      AMD NOT SKED=

USA.gov is the U.S. government's official web portal to all federal, state and local government web resources and services.